Location: Oakhurst
(33.6448°N, 111.9543°W)
Time: 03:40:15
(UTC+00:00)

X-37B - Pass Details

Date: 16 May 2021
Orbit: 386 x 389 km, 45.0° (Epoch: 10 June)

Event Time Altitude Azimuth Distance (km) Brightness Sun altitude
Rises 02:59:20 0° 308° (NW) 2,272 6.7 -7.8°
Reaches altitude 10° 03:01:29 10° 316° (NW) 1,415 4.9 -8.2°
Maximum altitude 03:04:32 41° 28° (NNE) 574 1.4 -8.7°
Enters shadow 03:07:17 12° 99° (E) 1,302 2.7 -9.2°
